This is the latest recevied weather packets stored in our database for station/object KC7UNY-13. If no packets are shown the sender has not sent any weather packets the latest 10 day(s).
| Time | Temp. | Humidity | Pressure | Rain* | Wind** | Luminosity | Snow |
|---|---|---|---|---|---|---|---|
| 1777831986 | 32.22° C | 26% | 1011.4 hPa | 0 mm | - | 622 W/m² | - |
| 1777831682 | 32.22° C | 26% | 1011.5 hPa | 0 mm | - | 601 W/m² | - |
| 1777831380 | 31.67° C | 27% | 1011.4 hPa | 0 mm | - | 556 W/m² | - |
| 1777831076 | 31.67° C | 27% | 1011.6 hPa | 0 mm | - | 528 W/m² | - |
| 1777830774 | 32.22° C | 27% | 1011.5 hPa | 0 mm | - | 501 W/m² | - |
| 1777830469 | 32.22° C | 27% | 1011.8 hPa | 0 mm | - | 590 W/m² | - |
| 1777830168 | 32.22° C | 27% | 1011.8 hPa | 0 mm | - | 516 W/m² | - |
| 1777829868 | 31.67° C | 28% | 1011.8 hPa | 0 mm | - | 597 W/m² | - |
| 1777829564 | 31.11° C | 27% | 1011.7 hPa | 0 mm | - | 491 W/m² | - |
| 1777829261 | 31.11° C | 28% | 1011.9 hPa | 0 mm | - | 564 W/m² | - |
| 1777828958 | 30.56° C | 28% | 1011.8 hPa | 0 mm | - | 542 W/m² | - |
| 1777828655 | 31.11° C | 27% | 1011.9 hPa | 0 mm | - | 392 W/m² | - |
| 1777828352 | 30.56° C | 28% | 1011.9 hPa | 0 mm | - | 444 W/m² | - |
| 1777828049 | 30° C | 29% | 1011.9 hPa | 0 mm | - | 492 W/m² | - |
| 1777827746 | 30.56° C | 28% | 1012 hPa | 0 mm | - | 330 W/m² | - |
| 1777827443 | 30° C | 29% | 1011.8 hPa | 0 mm | - | 392 W/m² | - |
| 1777827140 | 30° C | 28% | 1012.1 hPa | 0 mm | - | 356 W/m² | - |
| 1777826835 | 30° C | 29% | 1012.1 hPa | 0 mm | - | 465 W/m² | - |
| 1777826534 | 30° C | 29% | 1012.1 hPa | 0 mm | - | 394 W/m² | - |
| 1777826229 | 29.44° C | 30% | 1012.1 hPa | 0 mm | - | 313 W/m² | - |
| 1777825928 | 29.44° C | 30% | 1012.1 hPa | 0 mm | - | 319 W/m² | - |
| 1777825624 | 29.44° C | 30% | 1012 hPa | 0 mm | - | 314 W/m² | - |
| 1777825322 | 29.44° C | 30% | 1012 hPa | 0 mm | - | 332 W/m² | - |
| 1777825018 | 29.44° C | 30% | 1012 hPa | 0 mm | - | 404 W/m² | - |
| 1777824714 | 28.89° C | 31% | 1012.2 hPa | 0 mm | - | 299 W/m² | - |
* Rain latest hour (hover to see other rain measurements)
** Current wind speed in m/s (hover to see current wind gust speed)